Kozani Airport, Greece

6:17 AM EEST on August 28, 2016 (GMT +0300)
Filippos

Weather History for LGKZ - February, 2014

Change the Weather History Date:

Monday, February 10, 2014

  Actual Average Record
Temperature  
Mean Temperature 50 °F -  
Max Temperature 60 °F - - ()
Min Temperature 39 °F - - ()
Degree Days  
Heating Degree Days 16    
Moisture  
Dew Point 32 °F    
Average Humidity 55    
Maximum Humidity 76    
Minimum Humidity 25    
Precipitation  
Precipitation 0.00 in - - ()
Sea Level Pressure  
Sea Level Pressure 29.94 in    
Wind  
Wind Speed 4 mph ()    
Max Wind Speed 12 mph    
Max Gust Speed -    
Visibility 6.2 miles    
Events      
T = Trace of Precipitation, MM = Missing Value Source: Averaged Metar Reports

Daily Weather History Graph

Daily Weather History Graph

Search for Another Location

Airport or City:

Trip Planner

Search our weather history database for the weather conditions in past years. The results will help you decide how hot, cold, wet, or windy it might be!

Date:

Astronomy

Feb. 10, 2014 Rise Set
Actual Time 7:32 AM EET 6:01 PM EET
Civil Twilight 7:04 AM EET 6:30 PM EET
Nautical Twilight 6:32 AM EET 7:02 PM EET
Astronomical Twilight 6:00 AM EET 7:33 PM EET
Moon 2:15 PM EET (2/10) 4:11 AM EET (2/10)
Length of Visible Light 11h 25m
Length of Day
10h 29m
Waxing Gibbous, 82% of the Moon is Illuminated
Feb 10
Waxing Gibbous
Feb 15
Full
Feb 22
Last Quarter
Mar 1
New
Mar 8
First Quarter

Hourly Weather History & Observations

Time (EET) Temp. Windchill Dew Point Humidity Pressure Visibility Wind Dir Wind Speed Gust Speed Precip Events Conditions
12:20 AM 48.2 °F - 35.6 °F 62% 29.86 in - West 11.5 mph - N/A   Unknown
12:50 AM 44.6 °F 43.1 °F 35.6 °F 71% 29.86 in - Variable 3.5 mph - N/A   Unknown
1:20 AM 44.6 °F 42.2 °F 35.6 °F 71% 29.86 in - NE 4.6 mph - N/A   Unknown
1:50 AM 42.8 °F 40.1 °F 33.8 °F 70% 29.86 in - East 4.6 mph - N/A   Unknown
2:20 AM 42.8 °F - 33.8 °F 70% 29.86 in - Variable 2.3 mph - N/A   Unknown
2:50 AM 48.2 °F - 35.6 °F 62% 29.86 in - Variable 1.2 mph - N/A   Unknown
3:20 AM 46.4 °F 45.2 °F 35.6 °F 66% 29.89 in - Variable 3.5 mph - N/A   Unknown
3:50 AM 48.2 °F - 35.6 °F 62% 29.89 in - WNW 9.2 mph - N/A   Unknown
4:20 AM 48.2 °F - 35.6 °F 62% 29.89 in - North 8.1 mph - N/A   Unknown
4:50 AM 46.4 °F 43.5 °F 33.8 °F 62% 29.89 in - West 5.8 mph - N/A   Unknown
5:20 AM 44.6 °F 43.1 °F 33.8 °F 66% 29.92 in - Variable 3.5 mph - N/A   Unknown
5:50 AM 41.0 °F - 33.8 °F 76% 29.92 in - Variable 2.3 mph - N/A   Unknown
6:20 AM 41.0 °F - 33.8 °F 76% 29.92 in - Variable 2.3 mph - N/A   Unknown
6:50 AM 39.2 °F 35.9 °F 32.0 °F 75% 29.92 in - WSW 4.6 mph - N/A   Unknown
7:50 AM 42.8 °F 40.1 °F 32.0 °F 66% 29.95 in - North 4.6 mph - N/A   Clear
8:50 AM 46.4 °F - 33.8 °F 62% 29.98 in - Calm Calm - N/A   Clear
9:50 AM 53.6 °F - 32.0 °F 44% 29.98 in - Calm Calm - N/A   Clear
10:50 AM 55.4 °F - 33.8 °F 44% 29.98 in - Calm Calm - N/A   Clear
11:50 AM 55.4 °F - 30.2 °F 38% 29.98 in - Calm Calm - N/A   Clear
12:50 PM 57.2 °F - 26.6 °F 31% 29.98 in - Calm Calm - N/A   Clear
1:50 PM 59.0 °F - 24.8 °F 27% 29.95 in - SE 5.8 mph - N/A   Clear
2:50 PM 60.8 °F - 26.6 °F 27% 29.95 in 6.2 mi SE 4.6 mph - N/A   Scattered Clouds
3:50 PM 60.8 °F - 24.8 °F 25% 29.95 in 6.2 mi SSE 5.8 mph - N/A   Scattered Clouds
4:50 PM 60.8 °F - 26.6 °F 27% 29.95 in 6.2 mi Calm Calm - N/A   Scattered Clouds
5:50 PM 55.4 °F - 28.4 °F 36% 29.95 in 6.2 mi Calm Calm - N/A   Scattered Clouds
6:50 PM 51.8 °F - 30.2 °F 44% 29.98 in 6.2 mi Calm Calm - N/A   Scattered Clouds
7:50 PM 48.2 °F - 30.2 °F 50% 30.01 in 6.2 mi Calm Calm - N/A   Scattered Clouds
8:20 PM 48.2 °F - 30.2 °F 50% 30.01 in - Variable 2.3 mph - N/A   Unknown
8:50 PM 44.6 °F 41.4 °F 32.0 °F 61% 30.01 in - NNE 5.8 mph - N/A   Unknown
9:20 PM 46.4 °F 42.9 °F 30.2 °F 53% 30.01 in - North 6.9 mph - N/A   Unknown
9:50 PM 44.6 °F 43.1 °F 30.2 °F 57% 30.01 in - Variable 3.5 mph - N/A   Unknown
10:20 PM 44.6 °F - 32.0 °F 61% 30.01 in - Variable 2.3 mph - N/A   Unknown
10:50 PM 44.6 °F 41.4 °F 30.2 °F 57% 30.01 in - North 5.8 mph - N/A   Unknown
11:20 PM 42.8 °F 38.6 °F 30.2 °F 61% 30.01 in - North 6.9 mph - N/A   Unknown
11:50 PM 44.6 °F 42.2 °F 30.2 °F 57% 30.01 in - North 4.6 mph - N/A   Unknown